Year,Month,Day,Hour,Minute,Value (Times are PST for temperature in C)
2018,12,14,00,00,9.70
2018,12,14,00,01,9.70
2018,12,14,00,02,9.70
2018,12,14,00,03,9.70
2018,12,14,00,04,9.70
2018,12,14,00,05,9.70
2018,12,14,00,06,9.70
2018,12,14,00,07,9.70
2018,12,14,00,08,9.70
2018,12,14,00,09,9.70
2018,12,14,00,10,9.70
2018,12,14,00,11,9.70
2018,12,14,00,12,9.70
2018,12,14,00,13,9.70
2018,12,14,00,14,9.70
2018,12,14,00,15,9.70
2018,12,14,00,16,9.60
2018,12,14,00,17,9.60
2018,12,14,00,18,9.60
2018,12,14,00,19,9.60
2018,12,14,00,20,9.60
2018,12,14,00,21,9.60
2018,12,14,00,22,9.60
2018,12,14,00,23,9.60
2018,12,14,00,24,9.50
2018,12,14,00,25,9.50
2018,12,14,00,26,9.50
2018,12,14,00,27,9.40
2018,12,14,00,28,9.40
2018,12,14,00,29,9.40
2018,12,14,00,30,9.40
2018,12,14,00,31,9.30
2018,12,14,00,32,9.30
2018,12,14,00,33,9.30
2018,12,14,00,34,9.30
2018,12,14,00,35,9.20
2018,12,14,00,36,9.20
2018,12,14,00,37,9.20
2018,12,14,00,38,9.20
2018,12,14,00,39,9.20
2018,12,14,00,40,9.20
2018,12,14,00,41,9.20
2018,12,14,00,42,9.10
2018,12,14,00,43,9.10
2018,12,14,00,44,9.10
2018,12,14,00,45,9.10
2018,12,14,00,46,9.00
2018,12,14,00,47,9.00
2018,12,14,00,48,9.00
2018,12,14,00,49,9.00
2018,12,14,00,50,9.00
2018,12,14,00,51,9.00
2018,12,14,00,52,9.00
2018,12,14,00,53,9.00
2018,12,14,00,54,9.00
2018,12,14,00,55,8.90
2018,12,14,00,56,8.90
2018,12,14,00,57,9.00
2018,12,14,00,58,9.00
2018,12,14,00,59,9.10
2018,12,14,01,00,9.20
2018,12,14,01,01,9.20
2018,12,14,01,02,9.30
2018,12,14,01,03,9.30
2018,12,14,01,04,9.40
2018,12,14,01,05,9.40
2018,12,14,01,06,9.40
2018,12,14,01,07,9.50
2018,12,14,01,08,9.50
2018,12,14,01,09,9.50
2018,12,14,01,10,9.50
2018,12,14,01,11,9.60
2018,12,14,01,12,9.60
2018,12,14,01,13,9.70
2018,12,14,01,14,9.70
2018,12,14,01,15,9.70
2018,12,14,01,16,9.70
2018,12,14,01,17,9.70
2018,12,14,01,18,9.70
2018,12,14,01,19,9.70
2018,12,14,01,20,9.80
2018,12,14,01,21,9.80
2018,12,14,01,22,9.80
2018,12,14,01,23,9.80
2018,12,14,01,24,9.80
2018,12,14,01,25,9.80
2018,12,14,01,26,9.80
2018,12,14,01,27,9.80
2018,12,14,01,28,9.90
2018,12,14,01,29,9.90
2018,12,14,01,30,9.90
2018,12,14,01,31,9.90
2018,12,14,01,32,9.90
2018,12,14,01,33,9.90
2018,12,14,01,34,9.90
2018,12,14,01,35,9.90
2018,12,14,01,36,9.90
2018,12,14,01,37,9.90
2018,12,14,01,38,9.90
2018,12,14,01,39,9.90
2018,12,14,01,40,9.90
2018,12,14,01,41,9.90
2018,12,14,01,42,9.90
2018,12,14,01,43,9.90
2018,12,14,01,44,9.90
2018,12,14,01,45,9.90
2018,12,14,01,46,9.90
2018,12,14,01,47,9.90
2018,12,14,01,48,10.00
2018,12,14,01,49,10.10
2018,12,14,01,50,10.10
2018,12,14,01,51,10.10
2018,12,14,01,52,10.10
2018,12,14,01,53,10.10
2018,12,14,01,54,10.10
2018,12,14,01,55,10.10
2018,12,14,01,56,10.10
2018,12,14,01,57,10.10
2018,12,14,01,58,10.10
2018,12,14,01,59,10.10
2018,12,14,02,00,10.10
2018,12,14,02,01,10.10
2018,12,14,02,02,10.10
2018,12,14,02,03,10.20
2018,12,14,02,04,10.20
2018,12,14,02,05,10.10
2018,12,14,02,06,10.10
2018,12,14,02,07,10.10
2018,12,14,02,08,10.20
2018,12,14,02,09,10.20
2018,12,14,02,10,10.20
2018,12,14,02,11,10.20
2018,12,14,02,12,10.20
2018,12,14,02,13,10.20
2018,12,14,02,14,10.10
2018,12,14,02,15,10.10
2018,12,14,02,16,10.10
2018,12,14,02,17,10.10
2018,12,14,02,18,10.10
2018,12,14,02,19,10.10
2018,12,14,02,20,10.10
2018,12,14,02,21,10.10
2018,12,14,02,22,9.90
2018,12,14,02,23,9.90
2018,12,14,02,24,9.90
2018,12,14,02,25,9.90
2018,12,14,02,26,9.90
2018,12,14,02,27,9.90
2018,12,14,02,28,9.90
2018,12,14,02,29,9.90
2018,12,14,02,30,9.90
2018,12,14,02,31,9.80
2018,12,14,02,32,9.70
2018,12,14,02,33,9.70
2018,12,14,02,34,9.70
2018,12,14,02,35,9.70
2018,12,14,02,36,9.60
2018,12,14,02,37,9.60
2018,12,14,02,38,9.60
2018,12,14,02,39,9.50
2018,12,14,02,40,9.50
2018,12,14,02,41,9.40
2018,12,14,02,42,9.40
2018,12,14,02,43,9.30
2018,12,14,02,44,9.30
2018,12,14,02,45,9.20
2018,12,14,02,46,9.20
2018,12,14,02,47,9.20
2018,12,14,02,48,9.10
2018,12,14,02,49,9.10
2018,12,14,02,50,9.10
2018,12,14,02,51,9.10
2018,12,14,02,52,9.10
2018,12,14,02,53,9.10
2018,12,14,02,54,9.10
2018,12,14,02,55,9.10
2018,12,14,02,56,9.10
2018,12,14,02,57,9.10
2018,12,14,02,58,9.10
2018,12,14,02,59,9.10
2018,12,14,03,00,9.20
2018,12,14,03,01,9.20
2018,12,14,03,02,9.20
2018,12,14,03,03,9.20
2018,12,14,03,04,9.20
2018,12,14,03,05,9.20
2018,12,14,03,06,9.20
2018,12,14,03,07,9.20
2018,12,14,03,08,9.20
2018,12,14,03,09,9.20
2018,12,14,03,10,9.20
2018,12,14,03,11,9.20
2018,12,14,03,12,9.20
2018,12,14,03,13,9.20
2018,12,14,03,14,9.20
2018,12,14,03,15,9.20
2018,12,14,03,16,9.20
2018,12,14,03,17,9.20
2018,12,14,03,18,9.20
2018,12,14,03,19,9.20
2018,12,14,03,20,9.20
2018,12,14,03,21,9.20
2018,12,14,03,22,9.20
2018,12,14,03,23,9.20
2018,12,14,03,24,9.20
2018,12,14,03,25,9.20
2018,12,14,03,26,9.20
2018,12,14,03,27,9.30
2018,12,14,03,28,9.30
2018,12,14,03,29,9.30
2018,12,14,03,30,9.30
2018,12,14,03,31,9.30
2018,12,14,03,32,9.30
2018,12,14,03,33,9.30
2018,12,14,03,34,9.30
2018,12,14,03,35,9.30
2018,12,14,03,36,9.30
2018,12,14,03,37,9.30
2018,12,14,03,38,9.30
2018,12,14,03,39,9.30
2018,12,14,03,40,9.30
2018,12,14,03,41,9.30
2018,12,14,03,42,9.30
2018,12,14,03,43,9.30
2018,12,14,03,44,9.30
2018,12,14,03,45,9.30
2018,12,14,03,46,9.30
2018,12,14,03,47,9.30
2018,12,14,03,48,9.30
2018,12,14,03,49,9.20
2018,12,14,03,50,9.20
2018,12,14,03,51,9.20
2018,12,14,03,52,9.20
2018,12,14,03,53,9.20
2018,12,14,03,54,9.10
2018,12,14,03,55,9.10
2018,12,14,03,56,9.10
2018,12,14,03,57,9.00
2018,12,14,03,58,9.00
2018,12,14,03,59,9.00
2018,12,14,04,00,8.90
2018,12,14,04,01,8.90
2018,12,14,04,02,8.90
2018,12,14,04,03,8.90
2018,12,14,04,04,8.90
2018,12,14,04,05,8.90
2018,12,14,04,06,8.80
2018,12,14,04,07,8.80
2018,12,14,04,08,8.80
2018,12,14,04,09,8.80
2018,12,14,04,10,8.80
2018,12,14,04,11,8.80
2018,12,14,04,12,8.80
2018,12,14,04,13,8.80
2018,12,14,04,14,8.80
2018,12,14,04,15,8.80
2018,12,14,04,16,8.80
2018,12,14,04,17,8.70
2018,12,14,04,18,8.70
2018,12,14,04,19,8.70
2018,12,14,04,20,8.70
2018,12,14,04,21,8.70
2018,12,14,04,22,8.70
2018,12,14,04,23,8.70
2018,12,14,04,24,8.70
2018,12,14,04,25,8.70
2018,12,14,04,26,8.70
2018,12,14,04,27,8.70
2018,12,14,04,28,8.70
2018,12,14,04,29,8.70
2018,12,14,04,30,8.70
2018,12,14,04,31,8.70
2018,12,14,04,32,8.70
2018,12,14,04,33,8.70
2018,12,14,04,34,8.70
2018,12,14,04,35,8.70
2018,12,14,04,36,8.70
2018,12,14,04,37,8.70
2018,12,14,04,38,8.70
2018,12,14,04,39,8.70
2018,12,14,04,40,8.80
2018,12,14,04,41,8.80
2018,12,14,04,42,8.90
2018,12,14,04,43,9.00
2018,12,14,04,44,9.00
2018,12,14,04,45,9.00
2018,12,14,04,46,9.10
2018,12,14,04,47,9.10
2018,12,14,04,48,9.20
2018,12,14,04,49,9.20
2018,12,14,04,50,9.20
2018,12,14,04,51,9.20
2018,12,14,04,52,9.20
2018,12,14,04,53,9.20
2018,12,14,04,54,9.20
2018,12,14,04,55,9.10
2018,12,14,04,56,9.10
2018,12,14,04,57,9.10
2018,12,14,04,58,9.00
2018,12,14,04,59,9.00
2018,12,14,05,00,8.90
2018,12,14,05,01,8.90
2018,12,14,05,02,8.90
2018,12,14,05,03,8.90
2018,12,14,05,04,8.90
2018,12,14,05,05,8.90
2018,12,14,05,06,8.80
2018,12,14,05,07,8.80
2018,12,14,05,08,8.70
2018,12,14,05,09,8.70
2018,12,14,05,10,8.70
2018,12,14,05,11,8.70
2018,12,14,05,12,8.70
2018,12,14,05,13,8.70
2018,12,14,05,14,8.70
2018,12,14,05,15,8.70
2018,12,14,05,16,8.70
2018,12,14,05,17,8.70
2018,12,14,05,18,8.70
2018,12,14,05,19,8.70
2018,12,14,05,20,8.70
2018,12,14,05,21,8.70
2018,12,14,05,22,8.70
2018,12,14,05,23,8.70
2018,12,14,05,24,8.70
2018,12,14,05,25,8.80
2018,12,14,05,26,8.80
2018,12,14,05,27,8.80
2018,12,14,05,28,8.80
2018,12,14,05,29,8.80
2018,12,14,05,30,8.80
2018,12,14,05,31,8.80
2018,12,14,05,32,8.80
2018,12,14,05,33,8.80
2018,12,14,05,34,8.70
2018,12,14,05,35,8.70
2018,12,14,05,36,8.70
2018,12,14,05,37,8.70
2018,12,14,05,38,8.70
2018,12,14,05,39,8.70
2018,12,14,05,40,8.70
2018,12,14,05,41,8.80
2018,12,14,05,42,8.80
2018,12,14,05,43,8.90
2018,12,14,05,44,8.90
2018,12,14,05,45,9.00
2018,12,14,05,46,9.10
2018,12,14,05,47,9.10
2018,12,14,05,48,9.20
2018,12,14,05,49,9.30
2018,12,14,05,50,9.30
2018,12,14,05,51,9.40
2018,12,14,05,52,9.50
2018,12,14,05,53,9.60
2018,12,14,05,54,9.70
2018,12,14,05,55,9.80
2018,12,14,05,56,9.80
2018,12,14,05,57,9.90
2018,12,14,05,58,9.90
2018,12,14,05,59,9.90
2018,12,14,06,00,10.00
2018,12,14,06,01,10.10
2018,12,14,06,02,10.10
2018,12,14,06,03,10.10
2018,12,14,06,04,10.10
2018,12,14,06,05,10.10
2018,12,14,06,06,10.10
2018,12,14,06,07,10.10
2018,12,14,06,08,10.10
2018,12,14,06,09,10.10
2018,12,14,06,10,10.10
2018,12,14,06,11,10.10
2018,12,14,06,12,10.10
2018,12,14,06,13,10.10
2018,12,14,06,14,10.10
2018,12,14,06,15,10.00
2018,12,14,06,16,9.90
2018,12,14,06,17,9.90
2018,12,14,06,18,9.90
2018,12,14,06,19,9.90
2018,12,14,06,20,9.80
2018,12,14,06,21,9.80
2018,12,14,06,22,9.80
2018,12,14,06,23,9.80
2018,12,14,06,24,9.80
2018,12,14,06,25,9.80
2018,12,14,06,26,9.70
2018,12,14,06,27,9.70
2018,12,14,06,28,9.60
2018,12,14,06,29,9.50
2018,12,14,06,30,9.30
2018,12,14,06,31,9.20
2018,12,14,06,32,9.00
2018,12,14,06,33,8.80
2018,12,14,06,34,8.70
2018,12,14,06,35,8.50
2018,12,14,06,36,8.40
2018,12,14,06,37,8.20
2018,12,14,06,38,8.10
2018,12,14,06,39,8.00
2018,12,14,06,40,7.90
2018,12,14,06,41,7.90
2018,12,14,06,42,7.80
2018,12,14,06,43,7.80
2018,12,14,06,44,7.70
2018,12,14,06,45,7.60
2018,12,14,06,46,7.60
2018,12,14,06,47,7.50
2018,12,14,06,48,7.50
2018,12,14,06,49,7.40
2018,12,14,06,50,7.40
2018,12,14,06,51,7.40
2018,12,14,06,52,7.30
2018,12,14,06,53,7.30
2018,12,14,06,54,7.30
2018,12,14,06,55,7.30
2018,12,14,06,56,7.20
2018,12,14,06,57,7.20
2018,12,14,06,58,7.20
2018,12,14,06,59,7.20
2018,12,14,07,00,7.10
2018,12,14,07,01,7.10
2018,12,14,07,02,7.10
2018,12,14,07,03,7.10
2018,12,14,07,04,7.00
2018,12,14,07,05,7.00
2018,12,14,07,06,7.00
2018,12,14,07,07,7.00
2018,12,14,07,08,7.00
2018,12,14,07,09,7.00
2018,12,14,07,10,7.00
2018,12,14,07,11,7.00
2018,12,14,07,12,7.00
2018,12,14,07,13,6.90
2018,12,14,07,14,6.90
2018,12,14,07,15,6.80
2018,12,14,07,16,6.80
2018,12,14,07,17,6.80
2018,12,14,07,18,6.80
2018,12,14,07,19,6.80
2018,12,14,07,20,6.70
2018,12,14,07,21,6.70
2018,12,14,07,22,6.80
2018,12,14,07,23,6.80
2018,12,14,07,24,6.80
2018,12,14,07,25,6.80
2018,12,14,07,26,6.80
2018,12,14,07,27,6.80
2018,12,14,07,28,6.80
2018,12,14,07,29,6.80
2018,12,14,07,30,6.80
2018,12,14,07,31,6.80
2018,12,14,07,32,6.80
2018,12,14,07,33,6.80
2018,12,14,07,34,6.80
2018,12,14,07,35,6.80
2018,12,14,07,36,6.80
2018,12,14,07,37,6.80
2018,12,14,07,38,6.70
2018,12,14,07,39,6.70
2018,12,14,07,40,6.60
2018,12,14,07,41,6.60
2018,12,14,07,42,6.60
2018,12,14,07,43,6.60
2018,12,14,07,44,6.60
2018,12,14,07,45,6.60
2018,12,14,07,46,6.40
2018,12,14,07,47,6.40
2018,12,14,07,48,6.40
2018,12,14,07,49,6.40
2018,12,14,07,50,6.40
2018,12,14,07,51,6.40
2018,12,14,07,52,6.40
2018,12,14,07,53,6.40
2018,12,14,07,54,6.40
2018,12,14,07,55,6.40
2018,12,14,07,56,6.40
2018,12,14,07,57,6.40
2018,12,14,07,58,6.40
2018,12,14,07,59,6.40
2018,12,14,08,00,6.40
2018,12,14,08,01,6.40
2018,12,14,08,02,6.40
2018,12,14,08,03,6.40
2018,12,14,08,04,6.30
2018,12,14,08,05,6.30
2018,12,14,08,06,6.30
2018,12,14,08,07,6.30
2018,12,14,08,08,6.30
2018,12,14,08,09,6.30
2018,12,14,08,10,6.30
2018,12,14,08,11,6.30
2018,12,14,08,12,6.30
2018,12,14,08,13,6.30
2018,12,14,08,14,6.30
2018,12,14,08,15,6.40
2018,12,14,08,16,6.40
2018,12,14,08,17,6.40
2018,12,14,08,18,6.50
2018,12,14,08,19,6.60
2018,12,14,08,20,6.40
2018,12,14,08,21,6.50
2018,12,14,08,22,6.60
2018,12,14,08,23,6.60
2018,12,14,08,24,6.60
2018,12,14,08,25,6.70
2018,12,14,08,26,6.70
2018,12,14,08,27,6.70
2018,12,14,08,28,6.80
2018,12,14,08,29,6.80
2018,12,14,08,30,6.90
2018,12,14,08,31,6.90
2018,12,14,08,32,7.00
2018,12,14,08,33,7.00
2018,12,14,08,34,7.00
2018,12,14,08,35,7.00
2018,12,14,08,36,7.00
2018,12,14,08,37,7.00
2018,12,14,08,38,7.00
2018,12,14,08,39,6.90
2018,12,14,08,40,6.90
2018,12,14,08,41,6.80
2018,12,14,08,42,6.80
2018,12,14,08,43,6.80
2018,12,14,08,44,6.80
2018,12,14,08,45,6.80
2018,12,14,08,46,6.90
2018,12,14,08,47,6.90
2018,12,14,08,48,6.90
2018,12,14,08,49,6.90
2018,12,14,08,50,6.90
2018,12,14,08,51,6.90
2018,12,14,08,52,6.90
2018,12,14,08,53,6.90
2018,12,14,08,54,6.90
2018,12,14,08,55,7.00
2018,12,14,08,56,7.00
2018,12,14,08,57,7.10
2018,12,14,08,58,7.10
2018,12,14,08,59,7.20
2018,12,14,09,00,7.20
2018,12,14,09,01,7.20
2018,12,14,09,02,7.20
2018,12,14,09,03,7.20
2018,12,14,09,04,7.20
2018,12,14,09,05,7.20
2018,12,14,09,06,7.20
2018,12,14,09,07,7.20
2018,12,14,09,08,7.30
2018,12,14,09,09,7.30
2018,12,14,09,10,7.30
2018,12,14,09,11,7.30
2018,12,14,09,12,7.30
2018,12,14,09,13,7.30
2018,12,14,09,14,7.30
2018,12,14,09,15,7.30
2018,12,14,09,16,7.30
2018,12,14,09,17,7.30
2018,12,14,09,18,7.30
2018,12,14,09,19,7.20
2018,12,14,09,20,7.20
2018,12,14,09,21,7.20
2018,12,14,09,22,7.10
2018,12,14,09,23,7.10
2018,12,14,09,24,7.10
2018,12,14,09,25,7.20
2018,12,14,09,26,7.20
2018,12,14,09,27,7.20
2018,12,14,09,28,7.30
2018,12,14,09,29,7.30
2018,12,14,09,30,7.30
2018,12,14,09,31,7.30
2018,12,14,09,32,7.30
2018,12,14,09,33,7.30
2018,12,14,09,34,7.40
2018,12,14,09,35,7.50
2018,12,14,09,36,7.60
2018,12,14,09,37,7.70
2018,12,14,09,38,7.70
2018,12,14,09,39,7.80
2018,12,14,09,40,7.80
2018,12,14,09,41,7.90
2018,12,14,09,42,8.20
2018,12,14,09,43,8.60
2018,12,14,09,44,8.90
2018,12,14,09,45,9.30
2018,12,14,09,46,9.70
2018,12,14,09,47,10.00
2018,12,14,09,48,10.30
2018,12,14,09,49,10.50
2018,12,14,09,50,10.70
2018,12,14,09,51,10.60
2018,12,14,09,52,10.30
2018,12,14,09,53,10.00
2018,12,14,09,54,9.60
2018,12,14,09,55,9.30
2018,12,14,09,56,9.00
2018,12,14,09,57,8.70
2018,12,14,09,58,8.50
2018,12,14,09,59,8.30
2018,12,14,10,00,8.10
2018,12,14,10,01,7.90
2018,12,14,10,02,7.90
2018,12,14,10,03,7.80
2018,12,14,10,04,7.80
2018,12,14,10,05,7.70
2018,12,14,10,06,7.70
2018,12,14,10,07,7.60
2018,12,14,10,08,7.60
2018,12,14,10,09,7.50
2018,12,14,10,10,7.50
2018,12,14,10,11,7.50
2018,12,14,10,12,7.40
2018,12,14,10,13,7.40
2018,12,14,10,14,7.40
2018,12,14,10,15,7.40
2018,12,14,10,16,7.40
2018,12,14,10,17,7.30
2018,12,14,10,18,7.30
2018,12,14,10,19,7.30
2018,12,14,10,20,7.30
2018,12,14,10,21,7.30
2018,12,14,10,22,7.30
2018,12,14,10,23,7.20
2018,12,14,10,24,7.30
2018,12,14,10,25,7.30
2018,12,14,10,26,7.30
2018,12,14,10,27,7.30
2018,12,14,10,28,7.30
2018,12,14,10,29,7.40
2018,12,14,10,30,7.40
2018,12,14,10,31,7.50
2018,12,14,10,32,7.50
2018,12,14,10,33,7.60
2018,12,14,10,34,7.70
2018,12,14,10,35,7.90
2018,12,14,10,36,8.00
2018,12,14,10,37,8.20
2018,12,14,10,38,8.20
2018,12,14,10,39,8.30
2018,12,14,10,40,8.30
2018,12,14,10,41,8.30
2018,12,14,10,42,8.20
2018,12,14,10,43,8.20
2018,12,14,10,44,8.20
2018,12,14,10,45,8.10
2018,12,14,10,46,8.10
2018,12,14,10,47,8.10
2018,12,14,10,48,8.10
2018,12,14,10,49,8.00
2018,12,14,10,50,8.00
2018,12,14,10,51,8.00
2018,12,14,10,52,8.00
2018,12,14,10,53,8.00
2018,12,14,10,54,8.00
2018,12,14,10,55,8.00
2018,12,14,10,56,8.00
2018,12,14,10,57,8.10
2018,12,14,10,58,8.20
2018,12,14,10,59,8.30
2018,12,14,11,00,8.50
2018,12,14,11,01,8.70
2018,12,14,11,02,8.90
2018,12,14,11,03,9.00
2018,12,14,11,04,9.10
2018,12,14,11,05,9.00
2018,12,14,11,06,8.90
2018,12,14,11,07,8.80
2018,12,14,11,08,8.70
2018,12,14,11,09,8.60
2018,12,14,11,10,8.50
2018,12,14,11,11,8.40
2018,12,14,11,12,8.40
2018,12,14,11,13,8.30
2018,12,14,11,14,8.30
2018,12,14,11,15,8.20
2018,12,14,11,16,8.20
2018,12,14,11,17,8.20
2018,12,14,11,18,8.20
2018,12,14,11,19,8.20
2018,12,14,11,20,8.20
2018,12,14,11,21,8.20
2018,12,14,11,22,8.20
2018,12,14,11,23,8.20
2018,12,14,11,24,8.20
2018,12,14,11,25,8.20
2018,12,14,11,26,8.20
2018,12,14,11,27,8.20
2018,12,14,11,28,8.20
2018,12,14,11,29,8.20
2018,12,14,11,30,8.20
2018,12,14,11,31,8.20
2018,12,14,11,32,8.30
2018,12,14,11,33,8.40
2018,12,14,11,34,8.70
2018,12,14,11,35,8.90
2018,12,14,11,36,9.30
2018,12,14,11,37,9.70
2018,12,14,11,38,10.00
2018,12,14,11,39,10.20
2018,12,14,11,40,10.40
2018,12,14,11,41,10.60
2018,12,14,11,42,10.90
2018,12,14,11,43,11.10
2018,12,14,11,44,11.30
2018,12,14,11,45,11.40
2018,12,14,11,46,11.60
2018,12,14,11,47,11.70
2018,12,14,11,48,11.70
2018,12,14,11,49,11.80
2018,12,14,11,50,11.80
2018,12,14,11,51,11.80
2018,12,14,11,52,11.80
2018,12,14,11,53,11.90
2018,12,14,11,54,11.90
2018,12,14,11,55,11.90
2018,12,14,11,56,11.90
2018,12,14,11,57,11.90
2018,12,14,11,58,11.90
2018,12,14,11,59,11.90
2018,12,14,12,00,11.90
2018,12,14,12,01,11.90
2018,12,14,12,02,11.90
2018,12,14,12,03,11.90
2018,12,14,12,04,11.90
2018,12,14,12,05,11.80
2018,12,14,12,06,11.80
2018,12,14,12,07,11.80
2018,12,14,12,08,11.80
2018,12,14,12,09,11.80
2018,12,14,12,10,11.80
2018,12,14,12,11,11.80
2018,12,14,12,12,11.80
2018,12,14,12,13,11.80
2018,12,14,12,14,11.80
2018,12,14,12,15,11.80
2018,12,14,12,16,11.80
2018,12,14,12,17,11.80
2018,12,14,12,18,11.80
2018,12,14,12,19,11.90
2018,12,14,12,20,11.90
2018,12,14,12,21,11.90
2018,12,14,12,22,11.90
2018,12,14,12,23,12.00
2018,12,14,12,24,12.00
2018,12,14,12,25,12.00
2018,12,14,12,26,12.00
2018,12,14,12,27,12.00
2018,12,14,12,28,12.10
2018,12,14,12,29,12.10
2018,12,14,12,30,12.20
2018,12,14,12,31,12.20
2018,12,14,12,32,12.20
2018,12,14,12,33,12.20
2018,12,14,12,34,12.30
2018,12,14,12,35,12.30
2018,12,14,12,36,12.30
2018,12,14,12,37,12.30
2018,12,14,12,38,12.40
2018,12,14,12,39,12.40
2018,12,14,12,40,12.40
2018,12,14,12,41,12.40
2018,12,14,12,42,12.40
2018,12,14,12,43,12.50
2018,12,14,12,44,12.50
2018,12,14,12,45,12.50
2018,12,14,12,46,12.60
2018,12,14,12,47,12.60
2018,12,14,12,48,12.70
2018,12,14,12,49,12.70
2018,12,14,12,50,12.80
2018,12,14,12,51,12.80
2018,12,14,12,52,12.80
2018,12,14,12,53,12.90
2018,12,14,12,54,12.90
2018,12,14,12,55,12.90
2018,12,14,12,56,12.90
2018,12,14,12,57,12.90
2018,12,14,12,58,12.90
2018,12,14,12,59,12.90
2018,12,14,13,00,13.00
2018,12,14,13,01,13.00
2018,12,14,13,02,13.00
2018,12,14,13,03,13.00
2018,12,14,13,04,12.90
2018,12,14,13,05,12.90
2018,12,14,13,06,12.80
2018,12,14,13,07,12.80
2018,12,14,13,08,12.80
2018,12,14,13,09,12.80
2018,12,14,13,10,12.80
2018,12,14,13,11,12.80
2018,12,14,13,12,12.80
2018,12,14,13,13,12.80
2018,12,14,13,14,12.80
2018,12,14,13,15,12.80
2018,12,14,13,16,12.70
2018,12,14,13,17,12.70
2018,12,14,13,18,12.70
2018,12,14,13,19,12.70
2018,12,14,13,20,12.70
2018,12,14,13,21,12.70
2018,12,14,13,22,12.70
2018,12,14,13,23,12.70
2018,12,14,13,24,12.60
2018,12,14,13,25,12.60
2018,12,14,13,26,12.60
2018,12,14,13,27,12.60
2018,12,14,13,28,12.60
2018,12,14,13,29,12.70
2018,12,14,13,30,12.70
2018,12,14,13,31,12.70
2018,12,14,13,32,12.70
2018,12,14,13,33,12.80
2018,12,14,13,34,12.80
2018,12,14,13,35,12.80
2018,12,14,13,36,12.80
2018,12,14,13,37,12.80
2018,12,14,13,38,12.80
2018,12,14,13,39,12.80
2018,12,14,13,40,12.80
2018,12,14,13,41,12.80
2018,12,14,13,42,12.80
2018,12,14,13,43,12.80
2018,12,14,13,44,12.80
2018,12,14,13,45,12.80
2018,12,14,13,46,12.80
2018,12,14,13,47,12.90
2018,12,14,13,48,12.90
2018,12,14,13,49,12.90
2018,12,14,13,50,12.90
2018,12,14,13,51,12.90
2018,12,14,13,52,12.90
2018,12,14,13,53,12.90
2018,12,14,13,54,12.90
2018,12,14,13,55,12.90
2018,12,14,13,56,12.80
2018,12,14,13,57,12.80
2018,12,14,13,58,12.80
2018,12,14,13,59,12.80
2018,12,14,14,00,12.80
2018,12,14,14,01,12.90
2018,12,14,14,02,12.90
2018,12,14,14,03,12.80
2018,12,14,14,04,12.80
2018,12,14,14,05,12.80
2018,12,14,14,06,12.80
2018,12,14,14,07,12.80
2018,12,14,14,08,12.80
2018,12,14,14,09,12.80
2018,12,14,14,10,12.80
2018,12,14,14,11,12.80
2018,12,14,14,12,12.80
2018,12,14,14,13,12.80
2018,12,14,14,14,12.90
2018,12,14,14,15,12.90
2018,12,14,14,16,13.00
2018,12,14,14,17,13.00
2018,12,14,14,18,13.00
2018,12,14,14,19,13.10
2018,12,14,14,20,13.10
2018,12,14,14,21,13.10
2018,12,14,14,22,13.10
2018,12,14,14,23,13.10
2018,12,14,14,24,13.00
2018,12,14,14,25,13.00
2018,12,14,14,26,12.90
2018,12,14,14,27,12.90
2018,12,14,14,28,12.80
2018,12,14,14,29,12.80
2018,12,14,14,30,12.80
2018,12,14,14,31,12.80
2018,12,14,14,32,12.80
2018,12,14,14,33,12.80
2018,12,14,14,34,12.80
2018,12,14,14,35,12.70
2018,12,14,14,36,12.70
2018,12,14,14,37,12.70
2018,12,14,14,38,12.60
2018,12,14,14,39,12.60
2018,12,14,14,40,12.60
2018,12,14,14,41,12.60
2018,12,14,14,42,12.60
2018,12,14,14,43,12.60
2018,12,14,14,44,12.60
2018,12,14,14,45,12.60
2018,12,14,14,46,12.60
2018,12,14,14,47,12.60
2018,12,14,14,48,12.60
2018,12,14,14,49,12.60
2018,12,14,14,50,12.50
2018,12,14,14,51,12.60
2018,12,14,14,52,12.60
2018,12,14,14,53,12.60
2018,12,14,14,54,12.60
2018,12,14,14,55,12.60
2018,12,14,14,56,12.60
2018,12,14,14,57,12.60
2018,12,14,14,58,12.60
2018,12,14,14,59,12.60
2018,12,14,15,00,12.60
2018,12,14,15,01,12.60
2018,12,14,15,02,12.60
2018,12,14,15,03,12.60
2018,12,14,15,04,12.60
2018,12,14,15,05,12.60
2018,12,14,15,06,12.60
2018,12,14,15,07,12.60
2018,12,14,15,08,12.60
2018,12,14,15,09,12.60
2018,12,14,15,10,12.50
2018,12,14,15,11,12.50
2018,12,14,15,12,12.50
2018,12,14,15,13,12.50
2018,12,14,15,14,12.40
2018,12,14,15,15,12.40
2018,12,14,15,16,12.40
2018,12,14,15,17,12.40
2018,12,14,15,18,12.30
2018,12,14,15,19,12.30
2018,12,14,15,20,12.30
2018,12,14,15,21,12.30
2018,12,14,15,22,12.30
2018,12,14,15,23,12.30
2018,12,14,15,24,12.20
2018,12,14,15,25,12.20
2018,12,14,15,26,12.20
2018,12,14,15,27,12.20
2018,12,14,15,28,12.20
2018,12,14,15,29,12.20
2018,12,14,15,30,12.10
2018,12,14,15,31,12.10
2018,12,14,15,32,12.00
2018,12,14,15,33,11.90
2018,12,14,15,34,11.90
2018,12,14,15,35,11.80
2018,12,14,15,36,11.80
2018,12,14,15,37,11.70
2018,12,14,15,38,11.70
2018,12,14,15,39,11.60
2018,12,14,15,40,11.60
2018,12,14,15,41,11.60
2018,12,14,15,42,11.50
2018,12,14,15,43,11.40
2018,12,14,15,44,11.40
2018,12,14,15,45,11.40
2018,12,14,15,46,11.40
2018,12,14,15,47,11.40
2018,12,14,15,48,11.40
2018,12,14,15,49,11.40
2018,12,14,15,50,11.30
2018,12,14,15,51,11.20
2018,12,14,15,52,11.20
2018,12,14,15,53,11.10
2018,12,14,15,54,11.10
2018,12,14,15,55,11.00
2018,12,14,15,56,10.90
2018,12,14,15,57,10.90
2018,12,14,15,58,10.80
2018,12,14,15,59,10.80
2018,12,14,16,00,10.70
2018,12,14,16,01,10.70
2018,12,14,16,02,10.70
2018,12,14,16,03,10.60
2018,12,14,16,04,10.60
2018,12,14,16,05,10.60
2018,12,14,16,06,10.50
2018,12,14,16,07,10.40
2018,12,14,16,08,10.40
2018,12,14,16,09,10.40
2018,12,14,16,10,10.30
2018,12,14,16,11,10.30
2018,12,14,16,12,10.30
2018,12,14,16,13,10.30
2018,12,14,16,14,10.30
2018,12,14,16,15,10.20
2018,12,14,16,16,10.20
2018,12,14,16,17,10.20
2018,12,14,16,18,10.20
2018,12,14,16,19,10.10
2018,12,14,16,20,10.10
2018,12,14,16,21,10.10
2018,12,14,16,22,10.10
2018,12,14,16,23,10.10
2018,12,14,16,24,9.90
2018,12,14,16,25,9.90
2018,12,14,16,26,9.90
2018,12,14,16,27,9.90
2018,12,14,16,28,9.90
2018,12,14,16,29,9.90
2018,12,14,16,30,9.80
2018,12,14,16,31,9.80
2018,12,14,16,32,9.80
2018,12,14,16,33,9.70
2018,12,14,16,34,9.70
2018,12,14,16,35,9.70
2018,12,14,16,36,9.70
2018,12,14,16,37,9.70
2018,12,14,16,38,9.70
2018,12,14,16,39,9.60
2018,12,14,16,40,9.60
2018,12,14,16,41,9.60
2018,12,14,16,42,9.50
2018,12,14,16,43,9.50
2018,12,14,16,44,9.50
2018,12,14,16,45,9.50
2018,12,14,16,46,9.50
2018,12,14,16,47,9.40
2018,12,14,16,48,9.40
2018,12,14,16,49,9.40
2018,12,14,16,50,9.40
2018,12,14,16,51,9.40
2018,12,14,16,52,9.40
2018,12,14,16,53,9.40
2018,12,14,16,54,9.40
2018,12,14,16,55,9.30
2018,12,14,16,56,9.30
2018,12,14,16,57,9.30
2018,12,14,16,58,9.30
2018,12,14,16,59,9.30
2018,12,14,17,00,9.30
2018,12,14,17,01,9.30
2018,12,14,17,02,9.30
2018,12,14,17,03,9.30
2018,12,14,17,04,9.30
2018,12,14,17,05,9.40
2018,12,14,17,06,9.50
2018,12,14,17,07,9.50
2018,12,14,17,08,9.60
2018,12,14,17,09,9.60
2018,12,14,17,10,9.60
2018,12,14,17,11,9.70
2018,12,14,17,12,9.70
2018,12,14,17,13,9.70
2018,12,14,17,14,9.70
2018,12,14,17,15,9.70
2018,12,14,17,16,9.70
2018,12,14,17,17,9.70
2018,12,14,17,18,9.70
2018,12,14,17,19,9.80
2018,12,14,17,20,9.90
2018,12,14,17,21,9.90
2018,12,14,17,22,10.10
2018,12,14,17,23,10.20
2018,12,14,17,24,10.30
2018,12,14,17,25,10.40
2018,12,14,17,26,10.50
2018,12,14,17,27,10.70
2018,12,14,17,28,10.80
2018,12,14,17,29,10.90
2018,12,14,17,30,11.00
2018,12,14,17,31,11.10
2018,12,14,17,32,11.10
2018,12,14,17,33,11.20
2018,12,14,17,34,11.20
2018,12,14,17,35,11.30
2018,12,14,17,36,11.30
2018,12,14,17,37,11.40
2018,12,14,17,38,11.40
2018,12,14,17,39,11.40
2018,12,14,17,40,11.50
2018,12,14,17,41,11.60
2018,12,14,17,42,11.40
2018,12,14,17,43,11.40
2018,12,14,17,44,11.30
2018,12,14,17,45,11.20
2018,12,14,17,46,11.10
2018,12,14,17,47,11.00
2018,12,14,17,48,10.80
2018,12,14,17,49,10.70